DW3823 Weather Reports


Display with metric or nautical units.
time (UTC)temp
F
wind
direction
speed
MPH
gust
MPH
rain 1hr
in
rain 24hr
in
rain mn
in
humidity
%
barometer
mb
20260506062029 69 205 3.0 11.0 0.00 0.02 0.00 63 1007.6
20260506061529 69 238 4.0 11.0 0.00 0.02 0.00 63 1007.7
20260506061028 69 209 4.0 12.0 0.00 0.02 0.00 63 1007.6
20260506060526 69 168 5.0 12.0 0.00 0.02 0.00 63 1007.7
20260506051017 68 280 5.0 10.0 0.00 0.02 0.00 64 1008.5
20260506050516 68 167 2.0 10.0 0.00 0.02 0.00 65 1008.8
20260506045014 68 178 3.0 11.0 0.00 0.02 0.02 66 1008.7
20260506044522 68 95 3.0 10.0 0.00 0.02 0.02 66 1008.7
20260506044013 68 113 3.0 9.0 0.00 0.02 0.02 65 1008.6
20260506043515 68 220 2.0 8.0 0.00 0.02 0.02 65 1008.7
20260506043019 68 220 4.0 8.0 0.00 0.02 0.02 64 1008.9
20260506042514 68 135 3.0 8.0 0.00 0.02 0.02 64 1008.9
20260506042013 68 180 3.0 12.0 0.00 0.02 0.02 64 1009.0
20260506041516 68 218 5.0 18.0 0.00 0.02 0.02 64 1008.9
20260506041015 68 167 5.0 18.0 0.00 0.02 0.02 64 1008.9
20260506040514 68 143 4.0 10.0 0.00 0.02 0.02 64 1008.8
20260506040013 68 232 3.0 10.0 0.00 0.02 0.02 65 1008.8
20260506035513 68 193 3.0 7.0 0.00 0.02 0.02 65 1008.9
20260506035013 68 183 2.0 6.0 0.00 0.02 0.02 64 1009.1
20260506034512 68 221 2.0 7.0 0.00 0.02 0.02 65 1009.0
20260506034011 68 144 1.0 9.0 0.00 0.02 0.02 64 1009.1
20260506033511 68 215 3.0 9.0 0.00 0.02 0.02 64 1009.1
20260506033010 68 232 2.0 7.0 0.00 0.02 0.02 63 1009.2
20260506032510 68 179 2.0 7.0 0.00 0.02 0.02 64 1009.2
20260506032011 68 167 2.0 9.0 0.00 0.02 0.02 64 1009.2
20260506031511 67 182 3.0 9.0 0.00 0.02 0.02 63 1008.9
20260506031011 67 215 4.0 9.0 0.00 0.02 0.02 63 1009.0
20260506030510 67 194 1.0 7.0 0.01 0.02 0.02 64 1009.0
20260506030010 67 155 3.0 7.0 0.01 0.02 0.02 64 1009.1
20260506025510 67 234 2.0 8.0 0.01 0.02 0.02 63 1008.9
20260506025010 67 245 4.0 8.0 0.01 0.02 0.02 63 1008.9
20260506024516 67 187 2.0 9.0 0.01 0.02 0.02 63 1009.0
20260506024011 67 154 3.0 9.0 0.01 0.02 0.02 63 1008.9
20260506023509 67 209 3.0 6.0 0.01 0.02 0.02 64 1009.2
20260506023016 67 198 2.0 11.0 0.01 0.02 0.02 64 1009.2
20260506022509 67 167 2.0 11.0 0.01 0.02 0.02 65 1009.1
20260506022008 66 172 3.0 6.0 0.02 0.02 0.02 67 1009.3
20260506021608 65 265 3.0 7.0 0.02 0.02 0.02 67 1009.2
20260506021011 65 144 2.0 8.0 0.02 0.02 0.02 69 1009.2
20260506020512 64 272 0.0 8.0 0.01 0.01 0.01 71 1009.4
20260506020008 62 294 0.0 3.0 0.01 0.01 0.01 80 1009.5
20260506015508 61 201 0.0 0.0 0.01 0.01 0.01 83 1009.4
20260506015008 61 200 0.0 1.0 0.01 0.01 0.01 84 1009.6
20260506014507 61 201 0.0 5.0 0.01 0.01 0.01 82 1009.5
20260506014005 62 200 0.0 5.0 0.01 0.01 0.01 80 1009.5
20260506013505 62 306 0.0 2.0 0.01 0.01 0.01 79 1009.4
20260506013006 64 306 0.0 4.0 0.01 0.01 0.01 73 1009.5
20260506012505 67 306 1.0 6.0 0.00 0.00 0.00 63 1009.6
20260506012011 68 206 3.0 6.0 0.00 0.00 0.00 55 1009.6
20260506011516 68 201 1.0 6.0 0.00 0.00 0.00 55 1009.2
20260506011008 69 240 2.0 8.0 0.00 0.00 0.00 52 1009.2
20260506010504 69 132 2.0 8.0 0.00 0.00 0.00 52 1009.0
20260506010004 69 130 4.0 8.0 0.00 0.00 0.00 51 1009.0
20260506005505 69 288 3.0 9.0 0.00 0.00 0.00 51 1008.8
20260506005004 69 210 3.0 9.0 0.00 0.00 0.00 51 1008.7
20260506004513 69 145 3.0 8.0 0.00 0.00 0.00 51 1008.5
20260506004003 69 172 3.0 12.0 0.00 0.00 0.00 51 1008.4
20260506003503 69 178 2.0 12.0 0.00 0.00 0.00 50 1008.5
20260506003004 69 167 2.0 11.0 0.00 0.00 0.00 50 1008.5
20260506002502 69 179 2.0 8.0 0.00 0.00 0.00 50 1008.7
20260506002002 69 270 3.0 8.0 0.00 0.00 0.00 49 1008.6
20260506001502 69 140 3.0 8.0 0.00 0.00 0.00 49 1008.5
20260506001002 69 262 3.0 12.0 0.00 0.00 0.00 49 1008.7
20260506000502 69 84 4.0 12.0 0.00 0.00 0.00 49 1008.8
20260506000001 69 257 3.0 15.0 0.00 0.00 0.00 48 1009.0
20260505235501 70 198 5.0 15.0 0.00 0.00 0.00 48 1008.9
20260505235001 69 187 3.0 10.0 0.00 0.00 0.00 49 1009.1
20260505234502 69 267 4.0 10.0 0.00 0.00 0.00 49 1008.9
20260505234103 70 154 2.0 10.0 0.00 0.00 0.00 49 1009.0
20260505233602 70 239 2.0 14.0 0.00 0.00 0.00 48 1009.1
20260505233059 70 180 5.0 12.0 0.00 0.00 0.00 48 1008.9
20260505232559 70 250 3.0 10.0 0.00 0.00 0.00 48 1008.9
20260505232101 71 130 4.0 11.0 0.00 0.00 0.00 47 1008.5
20260505231559 71 151 5.0 12.0 0.00 0.00 0.00 46 1008.5
20260505231058 71 123 3.0 10.0 0.00 0.00 0.00 46 1008.3
20260505230557 71 154 4.0 13.0 0.00 0.00 0.00 45 1008.7
20260505230101 72 223 6.0 17.0 0.00 0.00 0.00 45 1008.9
20260505225557 72 196 5.0 17.0 0.00 0.00 0.00 45 1009.3
20260505225056 73 155 4.0 14.0 0.00 0.00 0.00 44 1009.4
20260505224557 73 162 5.0 14.0 0.00 0.00 0.00 44 1009.4
20260505224057 74 250 3.0 14.0 0.00 0.00 0.00 43 1009.4
20260505223555 74 174 5.0 14.0 0.00 0.00 0.00 42 1009.4
20260505223057 74 206 3.0 9.0 0.00 0.00 0.00 43 1009.6
20260505222555 74 254 3.0 16.0 0.00 0.00 0.00 43 1009.4
20260505222058 75 161 6.0 16.0 0.00 0.00 0.00 43 1009.5
20260505221604 75 122 2.0 15.0 0.00 0.00 0.00 46 1009.2
20260505221055 76 165 5.0 11.0 0.00 0.00 0.00 44 1009.0
20260505220555 76 229 3.0 11.0 0.00 0.00 0.00 47 1008.9
20260505220106 76 175 4.0 14.0 0.00 0.00 0.00 45 1008.9
20260505215554 76 198 3.0 14.0 0.00 0.00 0.00 44 1008.8
20260505215157 76 155 4.0 16.0 0.00 0.00 0.00 46 1008.9
20260505214555 75 157 6.0 16.0 0.00 0.00 0.00 44 1008.8
20260505214053 75 208 7.0 17.0 0.00 0.00 0.00 43 1008.8
20260505213552 76 187 5.0 17.0 0.00 0.00 0.00 43 1008.7
20260505213052 76 165 4.0 10.0 0.00 0.00 0.00 45 1008.7
20260505212551 76 261 5.0 18.0 0.00 0.00 0.00 45 1009.0
20260505212051 75 244 5.0 18.0 0.00 0.00 0.00 44 1008.9
20260505211551 76 159 4.0 12.0 0.00 0.00 0.00 43 1008.9
20260505211050 76 155 4.0 12.0 0.00 0.00 0.00 44 1009.0
20260505210551 76 137 5.0 18.0 0.00 0.00 0.00 44 1008.8
20260505210053 76 200 5.0 18.0 0.00 0.00 0.00 44 1009.1
20260505205548 76 228 5.0 14.0 0.00 0.00 0.00 44 1009.2
20260505205048 76 200 5.0 11.0 0.00 0.00 0.00 44 1009.3
20260505204556 76 163 4.0 12.0 0.00 0.00 0.00 44 1009.7
20260505204048 76 123 5.0 13.0 0.00 0.00 0.00 44 1009.8
20260505203549 76 254 5.0 12.0 0.00 0.00 0.00 47 1009.8
20260505203045 76 165 6.0 10.0 0.00 0.00 0.00 45 1010.0
20260505202543 75 250 5.0 9.0 0.00 0.00 0.00 50 1009.8
20260505202043 74 173 3.0 13.0 0.00 0.00 0.00 49 1009.8
20260505201547 74 138 5.0 12.0 0.00 0.00 0.00 49 1009.8
20260505201041 74 167 5.0 12.0 0.00 0.00 0.00 50 1009.9
20260505200541 73 146 5.0 12.0 0.00 0.00 0.00 50 1010.1
20260505200039 72 191 5.0 14.0 0.00 0.00 0.00 50 1010.3
20260505195539 72 151 5.0 13.0 0.00 0.00 0.00 52 1010.4
20260505195038 72 182 3.0 11.0 0.00 0.00 0.00 54 1010.6
20260505194538 71 279 3.0 12.0 0.00 0.00 0.00 54 1010.6
20260505194040 71 244 4.0 12.0 0.00 0.00 0.00 54 1010.7
20260505193536 71 234 3.0 12.0 0.00 0.00 0.00 53 1010.7
20260505193042 71 190 3.0 10.0 0.00 0.00 0.00 53 1010.7
20260505192537 71 232 3.0 11.0 0.00 0.00 0.00 53 1010.7
20260505192036 72 163 4.0 12.0 0.00 0.00 0.00 51 1010.7
20260505191536 74 192 3.0 10.0 0.00 0.00 0.00 52 1010.7
20260505191037 73 147 3.0 10.0 0.00 0.00 0.00 51 1011.0
20260505190538 74 144 4.0 11.0 0.00 0.00 0.00 51 1011.1
20260505190034 74 233 4.0 11.0 0.00 0.00 0.00 54 1011.5
20260505185534 73 258 7.0 14.0 0.00 0.00 0.00 51 1011.7
20260505185034 73 225 5.0 14.0 0.00 0.00 0.00 52 1012.0
20260505184532 72 320 4.0 16.0 0.00 0.00 0.00 55 1012.0
20260505184029 71 236 4.0 16.0 0.00 0.00 0.00 54 1011.7
20260505183529 71 180 4.0 12.0 0.00 0.00 0.00 54 1011.7
20260505183038 71 238 4.0 11.0 0.00 0.00 0.00 54 1011.5
20260505182528 71 186 4.0 12.0 0.00 0.00 0.00 55 1011.7
20260505182028 72 169 2.0 10.0 0.00 0.00 0.00 55 1011.5
20260505181529 72 126 3.0 13.0 0.00 0.00 0.00 55 1011.9
20260505181027 71 150 3.0 14.0 0.00 0.00 0.00 55 1011.9
20260505180527 71 171 4.0 14.0 0.00 0.00 0.00 56 1011.8
20260505180027 70 189 2.0 14.0 0.00 0.00 0.00 56 1011.8
20260505175527 70 186 5.0 14.0 0.00 0.00 0.00 56 1011.8
20260505175027 70 140 4.0 14.0 0.00 0.00 0.00 55 1012.3
20260505174526 71 260 3.0 12.0 0.00 0.00 0.00 53 1012.4
20260505174026 71 323 2.0 14.0 0.00 0.00 0.00 56 1012.5
20260505173526 72 98 4.0 16.0 0.00 0.00 0.00 55 1012.4
20260505173025 72 236 4.0 9.0 0.00 0.00 0.00 54 1012.4
20260505172524 72 252 3.0 11.0 0.00 0.00 0.00 55 1012.4
20260505172024 72 282 4.0 11.0 0.00 0.00 0.00 56 1012.6
20260505171523 72 330 5.0 11.0 0.00 0.00 0.00 54 1012.6
20260505171022 72 212 3.0 11.0 0.00 0.00 0.00 57 1012.6
20260505170521 71 256 3.0 11.0 0.00 0.00 0.00 57 1012.7
20260505170021 71 265 5.0 11.0 0.00 0.00 0.00 56 1012.7
20260505165520 71 213 6.0 13.0 0.00 0.00 0.00 56 1012.8
20260505165020 72 147 5.0 11.0 0.00 0.00 0.00 57 1012.8
20260505164519 71 194 3.0 11.0 0.00 0.00 0.00 57 1013.0
20260505164018 71 159 3.0 10.0 0.00 0.00 0.00 60 1013.1
20260505163519 70 108 4.0 11.0 0.00 0.00 0.00 59 1013.2
20260505163017 71 177 4.0 14.0 0.00 0.00 0.00 58 1013.5
20260505162516 71 222 1.0 11.0 0.00 0.00 0.00 60 1013.5
20260505162016 70 269 3.0 11.0 0.00 0.00 0.00 59 1013.5
20260505161516 71 151 4.0 14.0 0.00 0.00 0.00 59 1013.6
20260505161015 71 144 4.0 14.0 0.00 0.00 0.00 60 1013.5
20260505160514 71 165 5.0 13.0 0.00 0.00 0.00 59 1013.4
20260505153006 68 148 2.0 9.0 0.00 0.00 0.00 62 1013.2
20260505152504 67 205 3.0 9.0 0.00 0.00 0.00 64 1013.1
20260505152003 67 232 2.0 12.0 0.00 0.00 0.00 63 1013.1
20260505151503 67 271 4.0 12.0 0.00 0.00 0.00 63 1013.2
20260505151003 67 170 2.0 9.0 0.00 0.00 0.00 64 1013.2
20260505150503 67 248 1.0 9.0 0.00 0.00 0.00 65 1013.2
20260505140555 66 242 1.0 9.0 0.00 0.00 0.00 64 1012.6
20260505124548 62 163 3.0 6.0 0.00 0.00 0.00 63 1013.0
20260505124040 62 180 2.0 6.0 0.00 0.00 0.00 64 1013.0
20260505123542 62 199 0.0 4.0 0.00 0.00 0.00 66 1012.9
20260505123038 62 124 1.0 6.0 0.00 0.00 0.00 65 1012.8
20260505122536 61 186 2.0 6.0 0.00 0.00 0.00 64 1012.6
20260505122036 61 192 1.0 6.0 0.00 0.00 0.00 66 1012.5
20260505121536 60 179 1.0 6.0 0.00 0.00 0.00 65 1012.5
20260505121034 60 158 2.0 5.0 0.00 0.00 0.00 66 1012.4
20260505120534 60 173 2.0 5.0 0.00 0.00 0.00 67 1012.3
20260505120042 59 178 0.0 4.0 0.00 0.00 0.00 69 1012.3
20260505115530 59 180 0.0 3.0 0.00 0.00 0.00 69 1012.2
20260505115032 59 180 0.0 3.0 0.00 0.00 0.00 69 1012.1
20260505114528 58 172 0.0 2.0 0.00 0.00 0.00 70 1012.1
20260505114026 58 172 0.0 2.0 0.00 0.00 0.00 71 1012.1
20260505113525 58 172 0.0 1.0 0.00 0.00 0.00 71 1012.1
20260505113025 58 172 0.0 2.0 0.00 0.00 0.00 71 1012.1
20260505112524 58 172 1.0 3.0 0.00 0.00 0.00 70 1012.0
20260505112023 57 174 0.0 3.0 0.00 0.00 0.00 70 1011.9
20260505111522 57 179 0.0 2.0 0.00 0.00 0.00 71 1011.8
20260505111024 56 179 0.0 0.0 0.00 0.00 0.00 72 1011.8
20260505110519 56 179 0.0 1.0 0.00 0.00 0.00 72 1011.8
20260505102016 54 177 0.0 0.0 0.00 0.00 0.00 76 1011.4
20260505101516 54 176 0.0 0.0 0.00 0.00 0.00 76 1011.2
20260505101015 54 177 0.0 0.0 0.00 0.00 0.00 77 1011.3
20260505100516 53 177 0.0 0.0 0.00 0.00 0.00 79 1011.2
20260505100014 53 177 0.0 0.0 0.00 0.00 0.00 78 1011.2
20260505095513 54 176 0.0 0.0 0.00 0.00 0.00 77 1011.2
20260505095013 54 177 0.0 0.0 0.00 0.00 0.00 77 1011.2
20260505094514 53 177 0.0 0.0 0.00 0.00 0.00 78 1011.2
20260505094015 53 177 0.0 0.0 0.00 0.00 0.00 79 1011.3
20260505093513 53 176 0.0 0.0 0.00 0.00 0.00 79 1011.4
20260505093013 53 177 0.0 2.0 0.00 0.00 0.00 78 1011.5
20260505092517 54 177 0.0 2.0 0.00 0.00 0.00 78 1011.6
20260505092013 54 177 0.0 2.0 0.00 0.00 0.00 78 1011.7
20260505091514 54 177 0.0 0.0 0.00 0.00 0.00 78 1011.5
20260505091012 53 176 0.0 0.0 0.00 0.00 0.00 78 1011.6
20260505090512 53 177 0.0 0.0 0.00 0.00 0.00 78 1011.4
20260505090011 53 177 0.0 0.0 0.00 0.00 0.00 78 1011.4
20260505085513 54 176 0.0 0.0 0.00 0.00 0.00 78 1011.4
20260505085009 54 176 0.0 0.0 0.00 0.00 0.00 76 1011.3
20260505084522 55 177 0.0 0.0 0.00 0.00 0.00 74 1011.2
20260505084005 56 177 0.0 1.0 0.00 0.00 0.00 72 1011.3
20260505083504 57 176 0.0 1.0 0.00 0.00 0.00 72 1011.3
20260505083005 57 177 0.0 2.0 0.00 0.00 0.00 71 1011.3
20260505082505 57 176 0.0 2.0 0.00 0.00 0.00 71 1011.3
20260505082003 57 175 0.0 1.0 0.00 0.00 0.00 71 1011.3
20260505081509 57 175 0.0 1.0 0.00 0.00 0.00 71 1011.3
20260505081005 57 175 0.0 1.0 0.00 0.00 0.00 71 1011.2
20260505080501 57 175 0.0 3.0 0.00 0.00 0.00 70 1011.1
20260505080115 58 175 0.0 5.0 0.00 0.00 0.00 70 1011.2
20260505075600 58 175 1.0 5.0 0.00 0.00 0.00 70 1011.1
20260505075104 58 192 0.0 2.0 0.00 0.00 0.00 71 1011.0
20260505074600 58 192 0.0 3.0 0.00 0.00 0.00 71 1011.0
20260505074100 58 191 0.0 3.0 0.00 0.00 0.00 70 1010.9
20260505073559 58 192 0.0 3.0 0.00 0.00 0.00 70 1010.9
20260505073102 58 192 0.0 3.0 0.00 0.00 0.00 70 1011.1
20260505072558 58 193 0.0 2.0 0.00 0.00 0.00 70 1011.0
20260505072057 58 193 0.0 2.0 0.00 0.00 0.00 71 1011.0
20260505071558 58 193 0.0 3.0 0.00 0.00 0.00 70 1011.1
20260505071055 58 193 1.0 3.0 0.00 0.00 0.00 70 1011.1
20260505070556 58 194 0.0 3.0 0.00 0.00 0.00 69 1011.5